星链-1355 (STARLINK-1355 )

导读 | 星芒AI

STARLINK-1355 是 SpaceX Starlink 项目中的一颗低轨通信卫星,属于第 27 批 Starlink 卫星任务(5 月 2022 发射)。它运行在约 550 公里的高度,旨在为全球提供高速互联网服务。该卫星采用先进的推进系统和激光通信技术,支持星间链路,提高网络效率。作为 Starlink 卫星群的一部分,它有助于扩大覆盖范围,特别是在偏远地区。

基本信息
目录编号:
45563
目录名称:
STARLINK-1355
国际标识:
2020-025AJ
轨道中心:
EARTH
卫星名称:
星链-1355
卫星全名:
星链-1355 (STARLINK-1355 )
卫星状态:
已陨落 最后检测时间 2025-09-25
发射日期:
2020-04-22 UTC
国别 :
美国 (US)
星等 :
--
轨道信息
数据来源 国际轨道数据
星历时间: 2025-09-26T00:17:37+0800
轨道信息已过期81天
半长轴: 6537.602km
偏心率: 0.0002592
轨道倾角: 53.018°
近地点辐角 302.339°
升交点赤经 344.331°
平近点角 57.741°
近地点: 157.772km
远地点: 161.162km
周期: 87.677分钟
每日圈数: 16.423855
详细信息
固有亮度:
5
最大亮度:
2.5
卫星平台:
Starlink V1.0
覆盖范围:
全球
运营商:
太空探索技术公司
运营商所在国:
美国
制造商(研发单位):
太空探索技术公司
制造商所在国:
美国
使用方式:
暂无
卫星简介
星链(Starlink)计划是由太空探索技术公司(SpaceX)提出的一个巨型低轨卫星互联网星座项目,计划在2019年至2024年间在太空搭建由约1.2万颗卫星组成的“星链”网络,其中1584颗将部署在地球上空550千米处的近地轨道,并从2020年开始工作。该卫星仍在工作。